This demonstration page uses our WeatherBlox Daily Observations layout. Learn more.

Left ArrowRight Arrow

34.16533, -84.80231

Hourly Observations for July 27, 2016

Temp ( °F °C ) Dew Point ( °F °C ) Humidity (%) Winds ( mph kmh ) Pressure ( in mb ) Visibility ( mi km ) Precip ( " mm )
12:53 am 00:53 Clear 76 24.4 71 21.7 85 85 Calm 30.02 1017 10 16 0.00 0.00
1:53 am 01:53 Partly Cloudy 76 24.4 71 21.7 85 85 Calm 30.01 1016 10 16 0.00 0.00
2:53 am 02:53 Clear 73 22.8 71 21.7 94 94 Calm 29.99 1016 10 16 0.00 0.00
3:53 am 03:53 Clear 73 22.8 71 21.7 94 94 Calm 29.98 1015 10 16 0.00 0.00
4:53 am 04:53 Clear 72 22.2 71 21.7 97 97 Calm 29.99 1016 10 16 0.00 0.00
5:15 am 05:15 Mostly Cloudy 72 22.2 71 21.7 97 97 Calm 30.03 1017 10 16 0.00 0.00
5:24 am 05:24 Partly Cloudy 72 22.2 71 21.7 97 97 Calm 30.03 1017 10 16 0.00 0.00
5:53 am 05:53 Clear 73 22.8 71 21.7 94 94 Calm 30.01 1016 10 16 0.00 0.00
6:53 am 06:53 Mostly Cloudy 72 22.2 71 21.7 97 97 Calm 30.02 1017 10 16 0.00 0.00
7:53 am 07:53 Cloudy 76 24.4 73 22.8 91 91 Calm 30.04 1017 10 16 0.00 0.00
8:23 am 08:23 Cloudy 76 24.4 73 22.8 91 91 Calm 30.06 1018 10 16 0.00 0.00
8:30 am 08:30 Cloudy 76 24.4 73 22.8 91 91 Calm 30.06 1018 10 16 0.00 0.00
8:53 am 08:53 Cloudy 77 25 73 22.8 88 88 Calm 30.05 1018 10 16 0.00 0.00
9:53 am 09:53 Cloudy 79 26.1 72 22.2 79 79 Calm 30.05 1018 10 16 0.00 0.00
10:48 am 10:48 Partly Cloudy 81 27 72 22 74 74 VRB 6 9 30.03 1017 10 16 0.00 0.00
10:53 am 10:53 Mostly Cloudy 81 27.2 71 21.7 72 72 VRB 3 6 30.04 1017 10 16 0.00 0.00
11:07 am 11:07 Mostly Cloudy 80 26.7 72 22.2 76 76 VRB 5 7 30.03 1017 10 16 0.00 0.00
11:53 am 11:53 Cloudy 82 27.8 72 22.2 72 72 S 7 11 30.05 1018 10 16 0.00 0.00
12:53 pm 12:53 Cloudy 84 28.9 72 22.2 67 67 VRB 3 6 30.05 1018 10 16 0.00 0.00
1:53 pm 13:53 Partly Cloudy 88 31.1 73 22.8 61 61 SSE 9 15 30.02 1017 10 16 0.00 0.00
2:53 pm 14:53 Mostly Cloudy 88 31.1 72 22.2 59 59 S 9 15 30.00 1016 10 16 0.00 0.00
3:53 pm 15:53 Mostly Cloudy 87 30.6 72 22.2 61 61 S 6 9 29.99 1016 10 16 0.00 0.00
4:53 pm 16:53 Mostly Cloudy 89 31.7 71 21.7 55 55 VRB 7 11 29.96 1015 10 16 0.00 0.00
5:53 pm 17:53 Sunny 90 32.2 68 20 48 48 SSW 5 7 29.96 1014 10 16 0.00 0.00
6:53 pm 18:53 Sunny 89 31.7 70 21.1 53 53 VRB 5 7 29.96 1015 10 16 0.00 0.00
7:53 pm 19:53 Sunny 87 30.6 68 20 53 53 VRB 5 7 29.96 1015 10 16 0.00 0.00
8:53 pm 20:53 Mostly Cloudy 84 28.9 69 20.6 61 61 VRB 5 7 29.95 1014 10 16 0.00 0.00
9:53 pm 21:53 Clear 81 27.2 67 19.4 62 62 VRB 5 7 29.98 1015 10 16 0.00 0.00
10:53 pm 22:53 Clear 78 25.6 68 20 71 71 Calm 30.00 1016 10 16 0.00 0.00
11:53 pm 23:53 Clear 74 23.3 69 20.6 85 85 Calm 30.00 1016 10 16 0.00 0.00

Powered by AerisWeather